TRANSIT 18 DEB, 35416

Orbit data source: Space-Track

TRANSIT 18 DEB, 35416 is space debris in LEO originally from a launch on Sat, 02 Mar 1968 UTC launched from the Air Force Western Test Range (AFWTR). Debris objects in space refer to the collection of defunct objects orbiting the Earth. Examples of debris include non-operational satellites, rocket bodies, and fragments generated from explosions, collisions, or faulty payload assembly.

Loading next visibility...
TRANSIT 18 DEB details
Identifier
35416, 1968-012F
Orbit
LEO
Last TLE update20 hours ago
Origin
Flag of USUSN NAVAIR (US)
ManufacturerUnknown
MissionSpacecraft
Bus & MotorUnknown
MassUnknown
Launch date (UTC)
1968-03-02 (57 years ago)
Launch vehicleUnknown
Launch site
Air Force Western Test Range (AFWTR)
Object type
Payload
Rocket body
Debris
Shape & HBRUnknown
Radar Cross SectionMedium (>0.1 m² and <1 m²)

Expand to show TLE details & history

TLE from 20 hours ago
0 TRANSIT 18 DEB
1 35416U 68012F   24355.79993597  .00001654  00000-0  22479-2 0  9995
2 35416  90.0205 272.3021 0070704  41.6960  13.0250 13.57817948780760
Epoch: 2024-12-20T19:11Z
Definitive object data (Epoch: 2024-12-20T19:11:54.467Z)
Latitude55.00023°
Longitude-105.56423°
Altitude1,001.699 km
Speed7.381 km/s
True Right ascension18h 09m 05s
True Declination54° 50' 38"
Sunlit
Object was in daylight at TLE epoch
Visualization TLE readout
Latitude85.44187°
Longitude-105.7892°
Altitude1,020.864 km
Speed7.366 km/s
Apparent Right ascension01h 24m 06s
Apparent Declination35° 04' 49"
Sunlit
Object is in daylight
Visualization observer readout
Local Sidereal Time13:50:15
Azimuth5.528° NNE
Elevation-14.762°
Doppler factor1
Orbital elements
Apogee altitude1,093.125 km
Perigee altitude988.217 km
Semi-major axis7,418.808 km
Eccentricity0.0070704
Inclination90.0205°
RAAN272.3021°
Arg. of periapsis41.696°
True anomaly13.20919°
Mean anomaly13.025°
Eccentric anomaly13.11693°
Mean motion3.39658 °/min
BSTAR0.0022479
Orbital period105.99 mins
Loading maneuver chart data...
Loading historical data...
Loading historical data...
Loading historical data...
Loading historical data...
Loading historical data...
Loading historical data...
Loading historical data...

TRANSIT 18 DEB Visibility forecast

Observer location: undefined°, undefined

Span
Click to sort rows by Start time (UTC) header in descending order
Start Az.
Max El. time (UTC)
Max El. Az.
Max El.
End time (UTC)
End Az.
9 mins2024-12-21 18:03:03.756Z131.292° SE2024-12-21 18:07:03.756Z84.968° E26.748°2024-12-21 18:12:03.756Z22.554° NE
9 mins2024-12-21 19:49:03.756Z215.636° SW2024-12-21 19:53:03.756Z271.576° WNW31.577°2024-12-21 19:58:03.756Z337.593° N
11 mins2024-12-22 06:54:03.756Z4.755° NNE2024-12-22 06:59:03.756Z72.73° E44.751°2024-12-22 07:05:03.756Z180.465° SSW
5 mins2024-12-22 08:42:03.756Z310.66° NW2024-12-22 08:44:03.756Z290.649° WNW14.587°2024-12-22 08:47:03.756Z261.687° W
|